Location: Bratsk-Energetik
(56.3300°N, 101.7600°E)
Time: 19:17:39
(UTC+08:00)

ISS - Visible Passes

Search period start: 26 March 2017 00:00
Search period end: 05 April 2017 00:00
Orbit: 399 x 409 km, 51.6° (Epoch: 26 March)

Date Brightness Start Highest point End Pass type
(mag) Time Alt. Az. Time Alt. Az. Time Alt. Az.
29 Mar -1.8 21:33:03 10° SSW 21:34:15 16° S 21:34:15 16° S visible
30 Mar -1.8 20:41:31 10° S 20:43:15 14° SSE 20:44:32 12° ESE visible
30 Mar -1.7 22:16:06 10° SW 22:17:12 18° SW 22:17:12 18° SW visible
31 Mar -2.7 21:24:01 10° SW 21:26:47 26° SSE 21:27:17 24° SE visible
31 Mar -1.0 22:59:45 10° WSW 22:59:56 11° WSW 22:59:56 11° WSW visible
01 Apr -2.2 20:32:03 10° SSW 20:34:33 20° SSE 20:37:03 10° ESE visible
01 Apr -2.8 22:07:27 10° WSW 22:09:51 32° SSW 22:09:51 32° SSW visible
02 Apr -2.9 21:15:12 10° SW 21:18:10 32° S 21:19:38 21° ESE visible
02 Apr -1.6 22:51:13 10° WSW 22:52:18 18° WSW 22:52:18 18° WSW visible
03 Apr -3.1 21:58:51 10° WSW 22:01:53 35° S 22:02:00 35° S visible
04 Apr -3.0 21:06:30 10° WSW 21:09:32 36° S 21:11:39 17° ESE visible
04 Apr -1.9 22:42:44 10° WSW 22:44:18 21° SW 22:44:18 21° SW visible
